Alma, MI

4:47 PM EST on January 17, 2017 (GMT -0500)
Gratiot Community

Weather History for KAMN - October, 2012

Change the Weather History Date:

Saturday, October 13, 2012

  Actual Average Record
Temperature  
Mean Temperature 42 °F -  
Max Temperature 55 °F 61 °F 84 °F (1975)
Min Temperature 30 °F 39 °F 23 °F (1993)
Degree Days  
Heating Degree Days 22    
Moisture  
Dew Point 39 °F    
Average Humidity 91    
Maximum Humidity 98    
Minimum Humidity 78    
Precipitation  
Precipitation 0.00 in - - ()
Sea Level Pressure  
Sea Level Pressure 30.11 in    
Wind  
Wind Speed 4 mph (South)    
Max Wind Speed 13 mph    
Max Gust Speed 20 mph    
Visibility 7 miles    
Events Rain    
Averages and records for this station are not official NWS values.
T = Trace of Precipitation, MM = Missing Value Source: NWS Daily Summary

Daily Weather History Graph

Daily Weather History Graph

Search for Another Location

Airport or City:

Trip Planner

Search our weather history database for the weather conditions in past years. The results will help you decide how hot, cold, wet, or windy it might be!

Date:

Astronomy

Oct. 13, 2012 Rise Set
Actual Time 7:50 AM EDT 6:58 PM EDT
Civil Twilight 7:22 AM EDT 7:26 PM EDT
Nautical Twilight 6:49 AM EDT 7:59 PM EDT
Astronomical Twilight 6:15 AM EDT 8:32 PM EDT
Moon 5:37 AM EDT (10/13) 5:43 PM EDT (10/13)
Length of Visible Light 12h 04m
Length of Day
11h 07m
Waning Crescent, 5% of the Moon is Illuminated
Oct 13
Waning Crescent
Oct 15
New
Oct 21
First Quarter
Oct 29
Full
Nov 6
Last Quarter

Hourly Weather History & Observations

Time (EDT) Temp. Windchill Dew Point Humidity Pressure Visibility Wind Dir Wind Speed Gust Speed Precip Events Conditions
12:14 AM 34.7 °F 29.6 °F 28.4 °F 78% 30.37 in 10.0 mi ESE 5.8 mph - N/A   Clear
12:34 AM 33.4 °F - 28.6 °F 82% 30.36 in 10.0 mi Calm Calm - N/A   Clear
12:54 AM 33.4 °F - 28.2 °F 81% 30.36 in 10.0 mi Calm Calm - N/A   Clear
1:14 AM 33.3 °F - 28.4 °F 82% 30.34 in 10.0 mi Calm Calm - N/A   Clear
1:54 AM 32.7 °F - 27.9 °F 82% 30.33 in 10.0 mi Calm Calm - N/A   Clear
2:34 AM 30.2 °F - 27.0 °F 88% 30.33 in 10.0 mi Calm Calm - N/A   Clear
2:54 AM 30.0 °F - 27.5 °F 90% 30.32 in 10.0 mi Calm Calm - N/A   Clear
3:14 AM 30.2 °F - 27.1 °F 88% 30.31 in 10.0 mi Calm Calm - N/A   Clear
3:34 AM 32.4 °F 29.1 °F 28.2 °F 85% 30.30 in 10.0 mi SE 3.5 mph - N/A   Clear
3:55 AM 32.4 °F 29.1 °F 29.1 °F 88% 30.30 in 10.0 mi South 3.5 mph - N/A   Clear
4:10 AM 33.1 °F - 29.3 °F 86% 30.29 in 10.0 mi Calm Calm - N/A   Clear
4:30 AM 32.5 °F 29.3 °F 28.8 °F 86% 30.29 in 10.0 mi SSE 3.5 mph - N/A   Clear
4:50 AM 32.2 °F - 29.1 °F 88% 30.28 in 10.0 mi Calm Calm - N/A   Scattered Clouds
5:10 AM 34.5 °F 31.6 °F 30.2 °F 84% 30.28 in 10.0 mi South 3.5 mph - N/A   Clear
5:30 AM 35.1 °F 32.2 °F 30.9 °F 85% 30.28 in 10.0 mi South 3.5 mph - N/A   Clear
5:50 AM 35.8 °F - 31.8 °F 86% 30.28 in 10.0 mi Calm Calm - N/A   Clear
6:10 AM 36.0 °F - 32.0 °F 86% 30.27 in 10.0 mi Calm Calm - N/A   Clear
6:51 AM 36.9 °F 32.2 °F 32.0 °F 83% 30.25 in 10.0 mi SE 5.8 mph - N/A   Clear
7:11 AM 37.4 °F 34.9 °F 32.0 °F 81% 30.25 in 10.0 mi ESE 3.5 mph - N/A   Clear
7:31 AM 37.8 °F - 32.0 °F 80% 30.26 in 10.0 mi Calm Calm - N/A   Clear
7:51 AM 38.3 °F - 32.7 °F 80% 30.26 in 10.0 mi Calm Calm - N/A   Mostly Cloudy
8:11 AM 38.3 °F - 33.4 °F 83% 30.25 in 10.0 mi Calm Calm - N/A Rain Rain
8:31 AM 38.5 °F - 34.0 °F 84% 30.26 in 10.0 mi Calm Calm - N/A Rain Light Rain
8:51 AM 38.1 °F 35.7 °F 34.9 °F 88% 30.27 in 3.0 mi SSE 3.5 mph - N/A Rain Heavy Rain
9:11 AM 37.6 °F - 35.2 °F 91% 30.26 in 2.5 mi Calm Calm - N/A Rain Rain
9:52 AM 37.9 °F 34.4 °F 36.1 °F 93% 30.23 in 10.0 mi SSE 4.6 mph - N/A Rain Light Rain
10:32 AM 38.5 °F 33.4 °F 36.7 °F 93% 30.19 in 5.0 mi SSE 6.9 mph - N/A Rain Light Rain
10:52 AM 38.7 °F 33.6 °F 37.2 °F 95% 30.18 in 5.0 mi SSE 6.9 mph - N/A Rain Light Rain
11:12 AM 39.2 °F 34.2 °F 37.4 °F 93% 30.17 in 4.0 mi SSE 6.9 mph - N/A Rain Light Rain
11:32 AM 39.7 °F 35.6 °F 38.3 °F 95% 30.15 in 7.0 mi SSE 5.8 mph - N/A Rain Light Rain
11:52 AM 40.1 °F 34.7 °F 38.8 °F 95% 30.14 in 10.0 mi SSE 8.1 mph - N/A   Drizzle
12:12 PM 40.6 °F 35.4 °F 39.4 °F 95% 30.12 in 5.0 mi SSE 8.1 mph - N/A Rain Rain
12:33 PM 41.0 °F 35.8 °F 40.1 °F 97% 30.10 in 4.0 mi SSE 8.1 mph - N/A Rain Rain
12:53 PM 41.7 °F 37.3 °F 40.8 °F 97% 30.07 in 4.0 mi SE 6.9 mph - N/A Rain Rain
1:13 PM 42.1 °F 40.2 °F 41.2 °F 97% 30.05 in 4.0 mi SE 3.5 mph - N/A Rain Rain
1:33 PM 42.8 °F 38.0 °F 41.9 °F 97% 30.03 in 5.0 mi SSE 8.1 mph - N/A Rain Light Rain
1:53 PM 43.7 °F 39.1 °F 42.8 °F 97% 30.01 in 5.0 mi SSE 8.1 mph - N/A   Overcast
2:13 PM 44.4 °F 41.2 °F 43.5 °F 97% 29.99 in 5.0 mi SSE 5.8 mph - N/A Rain Rain
2:33 PM 45.3 °F 42.3 °F 44.4 °F 97% 29.99 in 7.0 mi South 5.8 mph - N/A   Light Drizzle
2:53 PM 45.9 °F 41.7 °F 44.6 °F 95% 29.97 in 4.0 mi South 8.1 mph - N/A Rain Light Rain
3:14 PM 45.9 °F 41.7 °F 44.2 °F 94% 29.96 in 5.0 mi South 8.1 mph - N/A Rain Heavy Rain
3:34 PM 45.5 °F 41.8 °F 44.1 °F 95% 29.95 in 4.0 mi South 6.9 mph - N/A Rain Light Rain
3:54 PM 45.5 °F 41.3 °F 44.1 °F 95% 29.94 in 5.0 mi South 8.1 mph - N/A Rain Rain
4:14 PM 45.7 °F 42.0 °F 44.6 °F 96% 29.94 in 2.5 mi South 6.9 mph - N/A Rain Rain
4:34 PM 46.4 °F 41.1 °F 44.8 °F 94% 29.92 in 5.0 mi South 11.5 mph - N/A Rain Light Rain
4:54 PM 46.4 °F 40.7 °F 44.8 °F 94% 29.91 in 5.0 mi South 12.7 mph 19.6 mph N/A Rain Rain
5:14 PM 46.4 °F 41.1 °F 45.0 °F 95% 29.91 in 5.0 mi South 11.5 mph 18.4 mph N/A Rain Light Rain
5:34 PM 46.6 °F - 45.5 °F 96% 29.90 in 7.0 mi South 11.5 mph 17.3 mph N/A   Light Drizzle
5:55 PM 46.9 °F - 45.7 °F 95% 29.90 in 5.0 mi South 10.4 mph - N/A Rain Rain
6:15 PM 47.3 °F - 46.0 °F 95% 29.89 in 5.0 mi South 8.1 mph - N/A Rain Light Rain
6:55 PM 47.7 °F - 46.6 °F 96% 29.86 in 5.0 mi South 8.1 mph - N/A   Overcast
7:10 PM 48.2 °F - 47.3 °F 97% 29.86 in 5.0 mi South 8.1 mph - N/A   Drizzle
7:30 PM 48.2 °F - 47.3 °F 97% 29.86 in 5.0 mi South 4.6 mph - N/A   Overcast
7:50 PM 48.6 °F - 47.7 °F 97% 29.84 in 3.0 mi South 5.8 mph - N/A Rain Rain
8:30 PM 49.6 °F - 49.1 °F 98% 29.84 in 3.0 mi SSW 3.5 mph - N/A   Overcast
8:51 PM 50.4 °F - 49.6 °F 97% 29.84 in 2.5 mi South 5.8 mph - N/A   Overcast
10:11 PM 54.5 °F - 53.8 °F 97% 29.83 in 2.5 mi SSW 8.1 mph - N/A   Drizzle
10:31 PM 55.0 °F - 54.5 °F 98% 29.84 in 2.5 mi SSW 8.1 mph - N/A   Drizzle
10:51 PM 55.4 °F - 54.7 °F 97% 29.83 in 3.0 mi SSW 4.6 mph - N/A   Overcast
11:11 PM 55.9 °F - 55.4 °F 98% 29.83 in 3.0 mi SSW 6.9 mph - N/A   Overcast